Weather History for OAMS - January, 2013

Change the Weather History Date:

Thursday, January 31, 2013

  Actual Average Record
Temperature  
Mean Temperature 55 °F -  
Max Temperature 60 °F 51 °F - ()
Min Temperature 50 °F 32 °F - ()
Degree Days  
Heating Degree Days 10    
Growing Degree Days 5 (Base 50)    
Moisture  
Dew Point 50 °F    
Average Humidity 89    
Maximum Humidity 100    
Minimum Humidity 59    
Precipitation  
Precipitation 0.00 in 0.05 in - ()
Sea Level Pressure  
Sea Level Pressure 30.08 in    
Wind  
Wind Speed 6 mph ()    
Max Wind Speed 18 mph    
Max Gust Speed -    
Visibility 4.4 miles    
Events Rain    
T = Trace of Precipitation, MM = Missing Value Source: Averaged Metar Reports

Daily Weather History Graph

Daily Weather History Graph

Search for Another Location

Airport or City:

Trip Planner

Search our weather history database for the weather conditions in past years. The results will help you decide how hot, cold, wet, or windy it might be!

Date:

Astronomy

Jan. 31, 2013 Rise Set
Actual Time 7:04 AM AFT 5:25 PM AFT
Civil Twilight 6:36 AM AFT 5:52 PM AFT
Nautical Twilight 6:05 AM AFT 6:23 PM AFT
Astronomical Twilight 5:35 AM AFT 6:54 PM AFT
Moon 9:50 PM AFT (1/31) 8:57 AM AFT (1/31)
Length of Visible Light 11h 16m
Length of Day
10h 21m
Waning Gibbous, 83% of the Moon is Illuminated
Jan 31
Waning Gibbous
Feb 3
Last Quarter
Feb 10
New
Feb 18
First Quarter
Feb 26
Full

Hourly Weather History & Observations

Time (AFT) Temp. Dew Point Humidity Pressure Visibility Wind Dir Wind Speed Gust Speed Precip Events Conditions
12:20 AM 57.2 °F 46.4 °F 67% 30.01 in 6.2 mi WSW 11.5 mph - N/A   Mostly Cloudy
1:20 AM 59.0 °F 44.6 °F 59% 30.01 in 6.2 mi SW 4.6 mph - N/A   Mostly Cloudy
2:20 AM 53.6 °F 48.2 °F 82% 30.04 in 6.2 mi West 8.1 mph - N/A   Mostly Cloudy
3:20 AM 53.6 °F 48.2 °F 82% 30.06 in 6.2 mi Variable 2.3 mph - N/A   Mostly Cloudy
4:20 AM 50.0 °F 48.2 °F 94% 30.09 in 6.2 mi WSW 11.5 mph - N/A   Mostly Cloudy
4:31 AM 50.0 °F 50.0 °F 100% 30.09 in 3.1 mi WSW 9.2 mph - N/A   Mostly Cloudy
5:20 AM 50.0 °F 50.0 °F 100% 30.12 in 2.5 mi WSW 4.6 mph - N/A   Mostly Cloudy
6:20 AM 50.0 °F 50.0 °F 100% 30.12 in - West 5.8 mph - N/A   Mostly Cloudy
6:36 AM 50.0 °F 50.0 °F 100% 30.12 in 2.2 mi West 4.6 mph - N/A Rain Light Rain
7:06 AM 50.0 °F 50.0 °F 100% 30.12 in 1.6 mi West 3.5 mph - N/A   Mostly Cloudy
7:20 AM 50.0 °F 50.0 °F 100% 30.12 in 1.7 mi WSW 2.3 mph - N/A   Mostly Cloudy
8:20 AM 50.0 °F 50.0 °F 100% 30.12 in 1.4 mi Calm Calm - N/A   Mostly Cloudy
8:56 AM 50.0 °F 50.0 °F 100% 30.15 in - South 2.3 mph - N/A   Scattered Clouds
9:03 AM 50.0 °F 48.2 °F 94% 30.15 in - SSW 2.3 mph - N/A   Mostly Cloudy
9:20 AM 50.0 °F 48.2 °F 94% 30.15 in 2.5 mi Variable 2.3 mph - N/A   Scattered Clouds
10:06 AM 51.8 °F 50.0 °F 94% 30.12 in - ENE 5.8 mph - N/A   Scattered Clouds
10:20 AM 51.8 °F 50.0 °F 94% 30.12 in 1.9 mi ENE 6.9 mph - N/A   Mostly Cloudy
11:20 AM 51.8 °F 50.0 °F 94% 30.12 in 1.7 mi NE 8.1 mph - N/A   Mostly Cloudy
12:20 PM 55.4 °F 51.8 °F 88% 30.09 in 3.1 mi East 12.7 mph - N/A   Mostly Cloudy
1:20 PM 59.0 °F 53.6 °F 82% 30.06 in 3.7 mi East 18.4 mph - N/A   Mostly Cloudy
2:20 PM 59.0 °F 53.6 °F 82% 30.06 in 3.7 mi ENE 16.1 mph - N/A   Mostly Cloudy
3:20 PM 60.8 °F 53.6 °F 77% 30.04 in 4.3 mi East 17.3 mph - N/A   Mostly Cloudy
4:20 PM 59.0 °F 51.8 °F 77% 30.04 in 6.2 mi East 13.8 mph - N/A   Mostly Cloudy
5:20 PM 57.2 °F 51.8 °F 82% 30.04 in 6.2 mi ENE 8.1 mph - N/A   Mostly Cloudy
6:20 PM 53.6 °F 51.8 °F 94% 30.04 in 6.2 mi SW 3.5 mph - N/A   Mostly Cloudy
7:20 PM 53.6 °F 50.0 °F 88% 30.04 in 6.2 mi SW 6.9 mph - N/A   Partly Cloudy
8:20 PM 53.6 °F 50.0 °F 88% 30.04 in 6.2 mi WSW 4.6 mph - N/A   Partly Cloudy
9:20 PM 51.8 °F 48.2 °F 88% 30.04 in 6.2 mi West 4.6 mph - N/A   Clear
10:20 PM 51.8 °F 48.2 °F 88% 30.01 in 6.2 mi SSE 2.3 mph - N/A   Clear
11:20 PM 50.0 °F 48.2 °F 94% 29.98 in 6.2 mi SE 2.3 mph - N/A   Scattered Clouds